This is the latest recevied weather packets stored in our database for station/object YM2KA-13. If no packets are shown the sender has not sent any weather packets the latest 10 day(s).
| Time | Temp. | Humidity | Pressure | Rain* | Wind** | Luminosity | Snow |
|---|---|---|---|---|---|---|---|
| 1788541881 | 25° C | 28% | 1008.5 hPa | 0 mm | - | - | - |
| 1788541698 | 25° C | 28% | 1008.4 hPa | 0 mm | - | - | - |
| 1788541281 | 25.56° C | 27% | 1008.1 hPa | 0 mm | - | - | - |
| 1788540803 | 25.56° C | 27% | 1008 hPa | 0 mm | - | - | - |
| 1788540681 | 25.56° C | 27% | 1008 hPa | 0 mm | - | - | - |
| 1788540083 | 25.56° C | 27% | 1007.9 hPa | 0 mm | - | - | - |
| 1788539900 | 25.56° C | 27% | 1007.8 hPa | 0 mm | - | - | - |
| 1788539483 | 26.11° C | 26% | 1007.8 hPa | 0 mm | - | - | - |
| 1788538997 | 26.11° C | 26% | 1007.7 hPa | 0 mm | - | - | - |
| 1788538884 | 26.11° C | 26% | 1007.8 hPa | 0 mm | - | - | - |
| 1788538286 | 26.67° C | 25% | 1007.6 hPa | 0 mm | - | - | - |
| 1788538103 | 26.67° C | 26% | 1007.6 hPa | 0 mm | - | - | - |
| 1788537687 | 26.67° C | 25% | 1007.6 hPa | 0 mm | - | - | - |
| 1788537200 | 26.67° C | 25% | 1007.6 hPa | 0 mm | - | - | - |
| 1788537088 | 26.67° C | 25% | 1007.6 hPa | 0 mm | - | - | - |
| 1788536479 | 26.67° C | 25% | 1007.5 hPa | 0 mm | - | - | - |
| 1788536296 | 26.67° C | 25% | 1007.5 hPa | 0 mm | - | - | - |
| 1788535880 | 27.22° C | 25% | 1007.4 hPa | 0 mm | - | - | - |
| 1788535403 | 27.22° C | 24% | 1007.4 hPa | 0 mm | - | - | - |
| 1788535281 | 27.22° C | 24% | 1007.4 hPa | 0 mm | - | - | - |
| 1788534683 | 27.78° C | 24% | 1007.4 hPa | 0 mm | - | - | - |
| 1788534500 | 27.78° C | 24% | 1007.4 hPa | 0 mm | - | - | - |
| 1788534083 | 27.78° C | 24% | 1007.4 hPa | 0 mm | - | - | - |
| 1788533596 | 27.78° C | 24% | 1007.4 hPa | 0 mm | - | - | - |
| 1788533484 | 27.22° C | 24% | 1007.3 hPa | 0 mm | - | - | - |
* Rain latest hour (hover to see other rain measurements)
** Current wind speed in m/s (hover to see current wind gust speed)